| time (UTC) | temp F | wind direction | speed MPH | gust MPH | rain 1hr in | rain 24hr in | rain mn in | humidity % | barometer mb |
| 20260904173830 | 82 | 124 | 5.0 | 6.0 | 0.00 | 0.00 | 0.00 | 25 | 1020.9 |
| 20260904172909 | 82 | 121 | 7.0 | 9.0 | 0.00 | 0.00 | 0.00 | 26 | 1020.9 |
| 20260904171830 | 83 | 126 | 5.0 | 8.0 | 0.00 | 0.00 | 0.00 | 26 | 1020.9 |
| 20260904170831 | 82 | 41 | 5.0 | 9.0 | 0.00 | 0.00 | 0.00 | 25 | 1020.9 |
| 20260904165827 | 82 | 106 | 5.0 | 8.0 | 0.00 | 0.00 | 0.00 | 27 | 1020.9 |
| 20260904164830 | 81 | 136 | 4.0 | 6.0 | 0.00 | 0.00 | 0.00 | 26 | 1020.9 |
| 20260904163851 | 81 | 150 | 4.0 | 6.0 | 0.00 | 0.00 | 0.00 | 29 | 1020.8 |
| 20260904162831 | 80 | 122 | 4.0 | 5.0 | 0.00 | 0.00 | 0.00 | 30 | 1020.9 |
| 20260904161851 | 80 | 111 | 3.0 | 4.0 | 0.00 | 0.00 | 0.00 | 29 | 1020.9 |
| 20260904160831 | 80 | 106 | 5.0 | 7.0 | 0.00 | 0.00 | 0.00 | 28 | 1020.9 |
| 20260904155852 | 79 | 126 | 3.0 | 5.0 | 0.00 | 0.00 | 0.00 | 28 | 1020.9 |
| 20260904154831 | 79 | 124 | 3.0 | 4.0 | 0.00 | 0.00 | 0.00 | 29 | 1020.9 |
| 20260904153834 | 79 | 77 | 4.0 | 5.0 | 0.00 | 0.00 | 0.00 | 29 | 1020.9 |
| 20260904152835 | 78 | 139 | 2.0 | 2.0 | 0.00 | 0.00 | 0.00 | 29 | 1020.8 |
| 20260904151852 | 76 | 144 | 2.0 | 4.0 | 0.00 | 0.00 | 0.00 | 31 | 1020.8 |
| 20260904150819 | 75 | 131 | 5.0 | 9.0 | 0.00 | 0.00 | 0.00 | 32 | 1020.8 |
| 20260904145822 | 74 | 167 | 2.0 | 3.0 | 0.00 | 0.00 | 0.00 | 33 | 1020.8 |
| 20260904144825 | 74 | 174 | 2.0 | 2.0 | 0.00 | 0.00 | 0.00 | 33 | 1020.7 |
| 20260904143825 | 74 | 185 | 2.0 | 2.0 | 0.00 | 0.00 | 0.00 | 34 | 1020.7 |
| 20260904142816 | 75 | 127 | 3.0 | 4.0 | 0.00 | 0.00 | 0.00 | 34 | 1020.8 |
| 20260904141825 | 75 | 3 | 3.0 | 3.0 | 0.00 | 0.00 | 0.00 | 31 | 1020.7 |
| 20260904140826 | 73 | 20 | 3.0 | 4.0 | 0.00 | 0.00 | 0.00 | 33 | 1020.7 |
| 20260904135846 | 73 | 315 | 1.0 | 2.0 | 0.00 | 0.00 | 0.00 | 30 | 1020.5 |
| 20260904134826 | 70 | 174 | 3.0 | 3.0 | 0.00 | 0.00 | 0.00 | 32 | 1020.4 |
| 20260904133826 | 68 | 215 | 2.0 | 3.0 | 0.00 | 0.00 | 0.00 | 36 | 1020.4 |
| 20260904132826 | 67 | 212 | 1.0 | 2.0 | 0.00 | 0.00 | 0.00 | 36 | 1020.2 |
| 20260904131827 | 66 | 181 | 1.0 | 2.0 | 0.00 | 0.00 | 0.00 | 36 | 1020.2 |
| 20260904130848 | 65 | 232 | 2.0 | 3.0 | 0.00 | 0.00 | 0.00 | 35 | 1020.2 |
| 20260904125827 | 63 | 277 | 2.0 | 3.0 | 0.00 | 0.00 | 0.00 | 35 | 1020.2 |
| 20260904124827 | 61 | 264 | 1.0 | 1.0 | 0.00 | 0.00 | 0.00 | 41 | 1020.2 |
| 20260904123848 | 61 | 256 | 1.0 | 2.0 | 0.00 | 0.00 | 0.00 | 44 | 1020.1 |
| 20260904122828 | 61 | 199 | 0.0 | 1.0 | 0.00 | 0.00 | 0.00 | 44 | 1020.2 |
| 20260904121847 | 61 | 339 | 0.0 | 0.0 | 0.00 | 0.00 | 0.00 | 43 | 1020.1 |
| 20260904120829 | 62 | 269 | 1.0 | 1.0 | 0.00 | 0.00 | 0.00 | 42 | 1020.0 |
| 20260904115838 | 63 | 221 | 1.0 | 2.0 | 0.00 | 0.00 | 0.00 | 40 | 1019.9 |
| 20260904114858 | 61 | 186 | 2.0 | 2.0 | 0.00 | 0.00 | 0.00 | 39 | 1019.8 |
| 20260904113837 | 61 | 272 | 0.0 | 0.0 | 0.00 | 0.00 | 0.00 | 41 | 1019.7 |
| 20260904112850 | 61 | 255 | 1.0 | 1.0 | 0.00 | 0.00 | 0.00 | 42 | 1019.7 |
| 20260904111838 | 62 | 247 | 1.0 | 2.0 | 0.00 | 0.00 | 0.00 | 43 | 1019.7 |
| 20260904110838 | 62 | 254 | 1.0 | 1.0 | 0.00 | 0.00 | 0.00 | 43 | 1019.7 |
| 20260904105839 | 62 | 256 | 1.0 | 1.0 | 0.00 | 0.00 | 0.00 | 44 | 1019.7 |
| 20260904104919 | 63 | 266 | 1.0 | 1.0 | 0.00 | 0.00 | 0.00 | 43 | 1019.3 |
| 20260904103840 | 63 | 248 | 1.0 | 1.0 | 0.00 | 0.00 | 0.00 | 43 | 1019.4 |
| 20260904102839 | 63 | 229 | 1.0 | 1.0 | 0.00 | 0.00 | 0.00 | 40 | 1019.3 |
| 20260904101839 | 64 | 293 | 1.0 | 2.0 | 0.00 | 0.00 | 0.00 | 40 | 1019.2 |
| 20260904100840 | 65 | 267 | 1.0 | 1.0 | 0.00 | 0.00 | 0.00 | 37 | 1019.1 |
| 20260904095900 | 66 | 0.0 | 0.0 | 0.00 | 0.00 | 0.00 | 37 | 1019.1 | |
| 20260904094839 | 68 | 315 | 1.0 | 1.0 | 0.00 | 0.00 | 0.00 | 35 | 1019.0 |
| 20260904093901 | 69 | 190 | 2.0 | 3.0 | 0.00 | 0.00 | 0.00 | 32 | 1018.9 |
| 20260904092850 | 68 | 260 | 2.0 | 3.0 | 0.00 | 0.00 | 0.00 | 32 | 1018.9 |
| 20260904091831 | 67 | 279 | 2.0 | 3.0 | 0.00 | 0.00 | 0.00 | 34 | 1018.9 |
| 20260904090830 | 66 | 107 | 0.0 | 0.0 | 0.00 | 0.00 | 0.00 | 38 | 1018.9 |
| 20260904085831 | 65 | 267 | 1.0 | 1.0 | 0.00 | 0.00 | 0.00 | 40 | 1018.8 |
| 20260904084851 | 65 | 249 | 1.0 | 1.0 | 0.00 | 0.00 | 0.00 | 41 | 1018.8 |
| 20260904083832 | 65 | 216 | 1.0 | 1.0 | 0.00 | 0.00 | 0.00 | 42 | 1018.8 |
| 20260904082852 | 66 | 0.0 | 0.0 | 0.00 | 0.00 | 0.00 | 42 | 1018.8 | |
| 20260904081852 | 67 | 286 | 1.0 | 1.0 | 0.00 | 0.00 | 0.00 | 41 | 1018.8 |
| 20260904080832 | 67 | 301 | 1.0 | 2.0 | 0.00 | 0.00 | 0.00 | 40 | 1018.8 |
| 20260904075829 | 67 | 292 | 1.0 | 2.0 | 0.00 | 0.00 | 0.00 | 40 | 1018.7 |
| 20260904074817 | 67 | 323 | 2.0 | 3.0 | 0.00 | 0.00 | 0.00 | 40 | 1018.7 |
| 20260904073818 | 67 | 306 | 3.0 | 5.0 | 0.00 | 0.00 | 0.00 | 40 | 1018.8 |
| 20260904072818 | 66 | 290 | 2.0 | 3.0 | 0.00 | 0.00 | 0.00 | 40 | 1018.8 |
| 20260904071818 | 0 | 164 | 1.0 | 2.0 | 0.00 | 0.00 | 0.00 | ||
| 20260904070818 | 67 | 297 | 1.0 | 2.0 | 0.00 | 0.00 | 0.00 | 41 | 1019.0 |
| 20260904065819 | 67 | 296 | 1.0 | 2.0 | 0.00 | 0.00 | 0.00 | 40 | 1019.1 |
| 20260904064818 | 67 | 242 | 1.0 | 1.0 | 0.00 | 0.00 | 0.00 | 42 | 1019.1 |
| 20260904063819 | 66 | 273 | 1.0 | 1.0 | 0.00 | 0.00 | 0.00 | 42 | 1019.1 |
| 20260904062819 | 67 | 285 | 1.0 | 1.0 | 0.00 | 0.00 | 0.00 | 42 | 1019.2 |
| 20260904061828 | 69 | 0.0 | 0.0 | 0.00 | 0.00 | 0.00 | 40 | 1019.2 | |
| 20260904060819 | 69 | 202 | 4.0 | 4.0 | 0.00 | 0.00 | 0.00 | 39 | 1019.3 |
| 20260904055819 | 71 | 187 | 3.0 | 5.0 | 0.00 | 0.00 | 0.00 | 38 | 1019.3 |
| 20260904054819 | 70 | 179 | 1.0 | 1.0 | 0.00 | 0.00 | 0.00 | 36 | 1019.1 |
| 20260904053820 | 70 | 240 | 1.0 | 1.0 | 0.00 | 0.00 | 0.00 | 36 | 1018.9 |
| 20260904052840 | 70 | 166 | 2.0 | 3.0 | 0.00 | 0.00 | 0.00 | 37 | 1018.7 |
| 20260904051820 | 72 | 196 | 1.0 | 2.0 | 0.00 | 0.00 | 0.00 | 36 | 1018.6 |
| 20260904050820 | 72 | 258 | 1.0 | 1.0 | 0.00 | 0.00 | 0.00 | 35 | 1018.5 |
| 20260904045821 | 73 | 8 | 3.0 | 4.0 | 0.00 | 0.00 | 0.00 | 34 | 1018.5 |
| 20260904044820 | 73 | 312 | 3.0 | 4.0 | 0.00 | 0.00 | 0.00 | 34 | 1018.5 |
| 20260904043822 | 74 | 243 | 3.0 | 3.0 | 0.00 | 0.00 | 0.00 | 34 | 1018.6 |
| 20260904042841 | 75 | 312 | 4.0 | 6.0 | 0.00 | 0.00 | 0.00 | 34 | 1018.6 |
| 20260904041821 | 76 | 335 | 3.0 | 5.0 | 0.00 | 0.00 | 0.00 | 32 | 1018.6 |
| 20260904040821 | 75 | 13 | 8.0 | 9.0 | 0.00 | 0.00 | 0.00 | 32 | 1018.6 |
| 20260904035821 | 75 | 15 | 4.0 | 6.0 | 0.00 | 0.00 | 0.00 | 33 | 1018.6 |
| 20260904034822 | 75 | 323 | 5.0 | 7.0 | 0.00 | 0.00 | 0.00 | 33 | 1018.6 |
| 20260904033822 | 75 | 312 | 2.0 | 4.0 | 0.00 | 0.00 | 0.00 | 34 | 1018.6 |
| 20260904032822 | 74 | 307 | 5.0 | 7.0 | 0.00 | 0.00 | 0.00 | 35 | 1018.7 |
| 20260904031823 | 74 | 306 | 4.0 | 5.0 | 0.00 | 0.00 | 0.00 | 35 | 1018.7 |
| 20260904030822 | 73 | 302 | 2.0 | 4.0 | 0.00 | 0.00 | 0.00 | 36 | 1018.7 |
| 20260904025842 | 74 | 320 | 2.0 | 5.0 | 0.00 | 0.00 | 0.00 | 36 | 1018.5 |
| 20260904024816 | 75 | 356 | 5.0 | 7.0 | 0.00 | 0.00 | 0.00 | 35 | 1018.5 |
| 20260904023836 | 75 | 353 | 4.0 | 7.0 | 0.00 | 0.00 | 0.00 | 35 | 1018.5 |
| 20260904022817 | 75 | 309 | 3.0 | 4.0 | 0.00 | 0.00 | 0.00 | 36 | 1018.4 |
| 20260904021817 | 76 | 15 | 2.0 | 5.0 | 0.00 | 0.00 | 0.00 | 34 | 1018.3 |
| 20260904020823 | 76 | 350 | 4.0 | 7.0 | 0.00 | 0.00 | 0.00 | 33 | 1018.3 |
| 20260904015820 | 77 | 349 | 4.0 | 11.0 | 0.00 | 0.00 | 0.00 | 31 | 1018.1 |
| 20260904014823 | 77 | 358 | 4.0 | 6.0 | 0.00 | 0.00 | 0.00 | 30 | 1018.1 |
| 20260904013817 | 77 | 3 | 4.0 | 5.0 | 0.00 | 0.00 | 0.00 | 30 | 1018.0 |
| 20260904012819 | 77 | 354 | 3.0 | 4.0 | 0.00 | 0.01 | 0.00 | 30 | 1018.1 |
| 20260904011824 | 77 | 349 | 3.0 | 4.0 | 0.00 | 0.01 | 0.00 | 29 | 1018.1 |
| 20260904010824 | 78 | 349 | 3.0 | 3.0 | 0.00 | 0.01 | 0.00 | 29 | 1018.1 |
| 20260904005824 | 79 | 7 | 2.0 | 3.0 | 0.00 | 0.01 | 0.00 | 28 | 1018.0 |
| 20260904004824 | 79 | 0 | 2.0 | 3.0 | 0.00 | 0.01 | 0.00 | 27 | 1018.0 |
| 20260904003825 | 80 | 24 | 1.0 | 3.0 | 0.00 | 0.01 | 0.00 | 27 | 1018.0 |
| 20260904002845 | 81 | 11 | 2.0 | 2.0 | 0.00 | 0.01 | 0.00 | 27 | 1017.9 |
| 20260904001825 | 83 | 24 | 2.0 | 3.0 | 0.00 | 0.01 | 0.00 | 26 | 1017.9 |
| 20260904000825 | 84 | 44 | 1.0 | 2.0 | 0.00 | 0.01 | 0.00 | 25 | 1017.8 |
| 20260903235835 | 86 | 43 | 1.0 | 2.0 | 0.00 | 0.01 | 0.00 | 25 | 1017.7 |
| 20260903234835 | 86 | 47 | 2.0 | 3.0 | 0.00 | 0.01 | 0.00 | 24 | 1017.7 |
| 20260903233829 | 86 | 41 | 2.0 | 4.0 | 0.00 | 0.01 | 0.00 | 24 | 1017.6 |
| 20260903232835 | 86 | 30 | 2.0 | 4.0 | 0.00 | 0.01 | 0.00 | 24 | 1017.6 |
| 20260903231826 | 87 | 50 | 2.0 | 3.0 | 0.00 | 0.01 | 0.00 | 24 | 1017.6 |
| 20260903230826 | 86 | 181 | 2.0 | 2.0 | 0.00 | 0.01 | 0.00 | 24 | 1017.6 |
| 20260903225821 | 86 | 15 | 3.0 | 4.0 | 0.00 | 0.01 | 0.00 | 25 | 1017.7 |
| 20260903224821 | 86 | 31 | 5.0 | 6.0 | 0.00 | 0.01 | 0.00 | 25 | 1017.7 |
| 20260903223820 | 86 | 27 | 2.0 | 3.0 | 0.00 | 0.01 | 0.00 | 24 | 1017.8 |
| 20260903222821 | 85 | 18 | 4.0 | 5.0 | 0.00 | 0.01 | 0.00 | 24 | 1017.9 |
| 20260903221821 | 86 | 28 | 3.0 | 5.0 | 0.00 | 0.01 | 0.00 | 25 | 1017.9 |
| 20260903220821 | 85 | 25 | 2.0 | 3.0 | 0.00 | 0.01 | 0.00 | 24 | 1018.1 |
| 20260903215821 | 85 | 27 | 6.0 | 7.0 | 0.00 | 0.01 | 0.00 | 26 | 1018.1 |
| 20260903214821 | 86 | 70 | 5.0 | 7.0 | 0.00 | 0.01 | 0.00 | 25 | 1018.1 |
| 20260903213818 | 85 | 48 | 4.0 | 8.0 | 0.00 | 0.01 | 0.00 | 25 | 1018.2 |
| 20260903212822 | 85 | 174 | 4.0 | 6.0 | 0.00 | 0.01 | 0.00 | 25 | 1018.2 |
| 20260903211842 | 85 | 34 | 7.0 | 8.0 | 0.00 | 0.01 | 0.00 | 26 | 1018.3 |
| 20260903210822 | 84 | 23 | 4.0 | 5.0 | 0.00 | 0.01 | 0.00 | 27 | 1018.5 |
| 20260903205823 | 84 | 14 | 2.0 | 2.0 | 0.00 | 0.01 | 0.00 | 27 | 1018.5 |
| 20260903204848 | 84 | 64 | 3.0 | 4.0 | 0.00 | 0.01 | 0.00 | 27 | 1018.6 |
| 20260903203823 | 84 | 77 | 3.0 | 4.0 | 0.00 | 0.01 | 0.00 | 26 | 1018.7 |
| 20260903202817 | 84 | 210 | 1.0 | 2.0 | 0.00 | 0.01 | 0.00 | 27 | 1018.8 |
| 20260903201817 | 83 | 23 | 2.0 | 4.0 | 0.00 | 0.01 | 0.00 | 27 | 1018.9 |
| 20260903200837 | 83 | 21 | 6.0 | 8.0 | 0.00 | 0.01 | 0.00 | 26 | 1018.9 |
| 20260903195822 | 83 | 41 | 6.0 | 7.0 | 0.00 | 0.01 | 0.00 | 26 | 1019.0 |
| 20260903194823 | 82 | 22 | 5.0 | 8.0 | 0.00 | 0.01 | 0.00 | 27 | 1019.1 |
| 20260903193823 | 83 | 16 | 6.0 | 7.0 | 0.00 | 0.01 | 0.00 | 27 | 1019.1 |
| 20260903192823 | 83 | 163 | 4.0 | 6.0 | 0.00 | 0.01 | 0.00 | 28 | 1019.3 |
| 20260903191817 | 82 | 26 | 2.0 | 4.0 | 0.00 | 0.01 | 0.00 | 28 | 1019.3 |
| 20260903190818 | 82 | 36 | 5.0 | 10.0 | 0.00 | 0.01 | 0.00 | 27 | 1019.4 |
| 20260903185838 | 82 | 54 | 7.0 | 11.0 | 0.00 | 0.01 | 0.00 | 27 | 1019.6 |
| 20260903184818 | 81 | 108 | 5.0 | 8.0 | 0.00 | 0.01 | 0.00 | 29 | 1019.6 |
| 20260903183818 | 81 | 58 | 6.0 | 9.0 | 0.00 | 0.01 | 0.00 | 28 | 1019.8 |
| 20260903182818 | 81 | 67 | 4.0 | 7.0 | 0.00 | 0.01 | 0.00 | 28 | 1020.0 |
| 20260903181818 | 81 | 124 | 5.0 | 9.0 | 0.00 | 0.01 | 0.00 | 28 | 1020.1 |
| 20260903180818 | 80 | 43 | 4.0 | 7.0 | 0.00 | 0.01 | 0.00 | 30 | 1020.1 |
| 20260903175819 | 80 | 172 | 4.0 | 7.0 | 0.00 | 0.01 | 0.00 | 29 | 1020.2 |
| 20260903174819 | 80 | 124 | 4.0 | 7.0 | 0.00 | 0.01 | 0.00 | 29 | 1020.3 |